Location: Bannatyne
(13.0833°N, 59.5333°W)
Time: 07:37:34
(UTC+00:00)

Vanguard 2 Rocket - Visible Passes

Search period start: 22 January 2020 00:00
Search period end: 01 February 2020 00:00
Orbit: 554 x 3326 km, 32.9° (Epoch: 21 January)

Date Brightness Start Highest point End Pass type
(mag) Time Alt. Az. Time Alt. Az. Time Alt. Az.
22 Jan 8.8 08:12:49 13° NNE 08:12:49 13° NNE 08:13:28 10° NE visible
23 Jan 8.3 09:22:44 12° NNW 09:24:05 13° N 09:26:38 10° NNE visible
24 Jan 8.8 08:26:47 10° NNE 08:26:47 10° NNE 08:26:51 10° NNE visible
31 Jan 10.1 01:19:34 10° S 01:22:36 14° S 01:22:36 14° S visible
